Vorticity
4 7 10 15 9 7 11 14 11 10 13 21 3 6 4 6 4 8 6 16 18 11 13 13 1 15 15 12 11 -3 12 26 1 4 5 8 4 2 14 -16 7 12 5 0
3 6 10 14 10 10 10 9 14 15 13 13 9 9 10 9 8 7 11 9 34 14 9 9 8 4 33 13 -5 8 2 36 3 25 17 16 3 15 -5 -6 -7 1 -2 -11
4 8 11 13 9 11 13 13 12 11 15 10 9 5 9 10 8 10 11 9 6 4 4 13 18 10 13 7 9 0 -2 16 8 3 16 19 8 9 7 -2 4 2 -10 -10
5 8 11 11 9 11 11 13 8 8 16 11 8 2 6 3 9 13 3 10 11 6 7 12 8 4 16 17 9 0 -4 12 3 10 7 13 25 34 18 6 5 1 -0 4
4 8 10 11 10 9 13 11 14 16 13 12 9 6 9 7 5 5 15 13 12 9 11 13 7 19 7 1 15 8 -2 12 13 6 2 2 1 1 3 6 5 14 8 9
4 8 11 12 11 10 11 10 15 16 22 11 6 6 10 5 2 7 7 5 8 12 15 16 14 5 5 10 17 25 -3 0 8 11 16 15 29 38 31 27 27 24 13 18
4 8 9 12 12 11 11 13 15 19 14 13 3 10 8 12 5 14 9 6 9 7 12 5 8 19 7 16 7 6 16 15 1 11 3 12 11 7 5 10 27 19 18 16
6 7 11 14 12 11 13 15 14 15 12 16 6 7 7 10 10 8 11 7 11 11 4 3 -2 7 4 8 8 10 11 9 9 5 12 -3 31 2 11 15 -1 2 -1 3
8 7 11 15 11 12 16 15 15 16 16 11 16 8 8 10 6 8 8 14 8 13 11 2 9 10 11 16 12 5 6 7 -0 8 10 7 -3 12 10 15 3 1 8 6
7 9 13 12 12 16 15 15 16 18 9 18 14 9 8 6 13 12 5 15 8 12 9 6 11 12 7 9 6 19 5 22 10 10 5 13 9 11 12 12 9 -4 -0 -1
8 11 13 12 13 13 16 15 18 18 17 20 14 10 13 9 10 10 15 12 9 9 5 5 4 13 8 10 9 13 11 8 12 16 8 18 1 0 -3 -5 -6 5 5 -2
10 11 13 11 8 13 14 18 17 14 14 19 14 14 15 12 15 10 7 -2 23 13 0 7 10 9 17 8 8 17 12 -2 2 -6 9 10 -9 -13 11 9 7 1 -4 -6
10 13 10 9 7 8 10 14 15 10 10 10 15 13 13 18 19 8 12 9 -4 5 12 18 7 4 15 7 14 8 8 3 -1 2 13 13 8 7 1 1 -0 -1 -2 -1
12 13 8 5 8 9 8 11 15 21 23 10 8 8 10 14 24 24 18 8 6 12 15 9 7 6 11 15 9 1 -1 5 9 15 16 9 16 5 17 16 14 19 24 26
14 9 6 7 8 9 9 9 12 13 33 8 4 7 5 11 6 10 36 23 17 10 9 8 10 12 10 11 14 17 12 1 -2 6 10 10 17 12 20 18 2 4 9 28
11 11 7 7 8 11 7 9 8 3 0 8 5 9 13 7 14 8 6 14 22 18 12 10 11 10 4 9 11 -1 10 10 10 16 16 15 15 9 13 20 12 8 2 18
12 13 9 7 8 10 14 22 22 10 5 -12 -17 -13 14 16 15 11 9 13 9 12 15 15 9 6 4 0 -0 13 7 5 5 2 8 23 20 14 15 16 22 24 11 9
14 17 12 13 6 -0 8 6 2 2 -1 -2 16 -4 -0 10 14 15 16 13 16 14 11 12 15 18 25 21 11 12 10 9 8 8 8 3 11 15 16 17 14 11 14 16
9 6 4 1 0 5 6 5 5 8 13 11 16 9 3 2 5 16 13 13 10 13 12 13 14 13 9 12 6 4 2 1 2 5 6 6 8 4 4 5 23 19 12 22
3 5 5 1 2 3 2 -2 -7 -0 6 10 6 6 8 6 4 6 21 8 10 11 9 15 12 10 3 5 5 6 10 10 8 9 6 4 4 8 12 12 9 7 25 11
0 1 -3 10 2 2 -7 11 4 10 5 9 2 4 3 5 7 7 13 7 12 13 16 -0 13 18 11 4 5 5 4 2 4 4 3 3 2 1 0 3 5 13 5 22
-0 3 18 2 -6 10 10 12 11 11 12 2 3 3 4 6 12 13 13 14 17 10 13 6 15 29 1 3 -1 -3 2 5 4 9 10 8 6 5 3 3 3 5 5 9
1 5 -15 4 8 11 9 13 14 15 6 -1 -0 4 6 18 15 15 15 13 14 10 12 12 7 22 6 -2 -8 -10 -5 1 5 8 12 13 8 8 10 6 5 4 4 3
-16 2 5 -1 19 16 10 13 15 2 -0 2 8 11 6 3 25 12 9 13 7 10 7 6 13 14 8 -4 -9 -17 -11 -3 1 14 15 13 11 10 9 10 7 7 6 4
-10 6 5 7 7 16 13 8 7 9 12 15 16 17 19 15 12 16 10 11 15 10 7 5 10 11 15 13 1 -10 -5 8 20 12 11 14 17 19 23 13 12 10 9 9
-5 6 9 17 17 15 13 15 12 12 14 13 15 16 17 17 11 17 7 9 11 4 -4 -1 0 -1 -6 -4 -1 10 16 14 17 17 18 20 17 15 18 18 22 26 18 18
17 12 27 13 1 0 3 4 7 5 6 9 21 17 10 12 18 12 16 7 -3 1 -3 -3 -1 2 3 14 15 15 18 21 22 22 19 12 5 6 8 9 13 30 26 22
Height
3063 3060 3055 3051 3049 3046 3044 3041 3040 3039 3038 3039 3039 3041 3042 3043 3045 3044 3045 3045 3045 3047 3048 3050 3051 3053 3055 3058 3060 3063 3064 3067 3073 3076 3077 3080 3082 3085 3088 3089 3092 3092 3093 3089
3059 3056 3051 3048 3045 3044 3042 3039 3039 3039 3038 3039 3040 3041 3043 3044 3043 3046 3047 3047 3047 3048 3049 3051 3051 3054 3056 3057 3061 3063 3064 3067 3072 3077 3080 3078 3079 3081 3083 3086 3086 3088 3090 3088
3054 3052 3048 3045 3042 3041 3040 3038 3037 3037 3037 3038 3040 3043 3044 3044 3046 3047 3047 3049 3050 3051 3050 3051 3051 3053 3057 3058 3061 3063 3065 3066 3067 3068 3068 3070 3074 3076 3079 3082 3084 3083 3083 3085
3050 3047 3045 3042 3040 3039 3038 3036 3036 3036 3036 3038 3040 3042 3043 3044 3046 3048 3048 3050 3051 3052 3052 3051 3052 3053 3055 3058 3060 3063 3065 3066 3067 3068 3069 3070 3071 3073 3076 3076 3077 3077 3080 3079
3044 3043 3041 3039 3038 3036 3034 3033 3033 3033 3034 3037 3039 3041 3043 3044 3046 3048 3048 3049 3049 3050 3052 3052 3053 3053 3055 3056 3058 3061 3065 3066 3067 3068 3068 3069 3070 3071 3072 3072 3071 3070 3071 3068
3040 3039 3037 3035 3034 3033 3031 3029 3030 3031 3032 3035 3038 3040 3043 3044 3046 3048 3049 3050 3050 3050 3051 3052 3053 3054 3056 3057 3058 3060 3063 3065 3066 3068 3067 3068 3068 3066 3066 3067 3067 3067 3066 3067
3035 3035 3033 3032 3031 3030 3028 3027 3027 3028 3030 3033 3036 3039 3042 3043 3046 3047 3048 3048 3051 3053 3052 3054 3055 3056 3057 3058 3059 3061 3062 3064 3067 3067 3067 3067 3064 3063 3063 3063 3063 3063 3062 3060
3030 3030 3029 3028 3028 3027 3024 3023 3024 3025 3027 3031 3035 3037 3039 3042 3044 3046 3045 3050 3052 3052 3054 3056 3057 3058 3059 3059 3060 3061 3062 3064 3065 3067 3066 3064 3062 3062 3061 3060 3062 3059 3058 3056
3026 3026 3025 3025 3025 3024 3021 3020 3021 3023 3026 3029 3031 3034 3037 3040 3043 3044 3047 3049 3049 3051 3053 3055 3055 3056 3057 3059 3059 3060 3061 3062 3065 3064 3064 3061 3062 3060 3058 3058 3059 3056 3054 3052
3022 3022 3022 3023 3024 3022 3021 3019 3020 3020 3024 3026 3030 3033 3036 3039 3042 3045 3048 3049 3049 3049 3050 3051 3053 3054 3054 3057 3057 3057 3059 3059 3060 3061 3062 3061 3059 3058 3057 3058 3059 3053 3051 3049
3018 3019 3019 3021 3022 3020 3020 3019 3018 3020 3023 3026 3029 3032 3035 3038 3041 3044 3046 3048 3048 3048 3048 3049 3049 3051 3053 3054 3056 3056 3058 3059 3059 3060 3060 3060 3057 3057 3057 3055 3051 3049 3048 3045
3015 3016 3017 3020 3020 3019 3020 3019 3018 3020 3024 3027 3030 3032 3035 3037 3038 3042 3043 3046 3045 3047 3048 3049 3050 3050 3051 3052 3054 3055 3058 3058 3058 3059 3058 3056 3055 3053 3051 3049 3047 3045 3043 3042
3011 3012 3016 3018 3017 3018 3019 3020 3020 3022 3025 3029 3031 3033 3035 3036 3037 3039 3042 3043 3044 3044 3046 3049 3050 3051 3052 3052 3052 3053 3053 3054 3055 3056 3053 3053 3052 3050 3047 3043 3040 3038 3036 3034
3007 3010 3014 3017 3017 3019 3020 3021 3021 3024 3026 3029 3033 3034 3036 3036 3035 3037 3038 3040 3042 3043 3046 3047 3048 3048 3050 3049 3050 3051 3051 3050 3050 3050 3049 3047 3047 3045 3040 3036 3034 3031 3028 3023
3004 3008 3013 3015 3017 3019 3020 3021 3024 3026 3030 3030 3032 3035 3037 3036 3036 3035 3035 3037 3039 3041 3044 3045 3044 3044 3045 3043 3044 3045 3045 3045 3045 3044 3043 3039 3038 3036 3032 3029 3028 3025 3020 3017
3002 3007 3011 3014 3016 3019 3020 3021 3025 3027 3029 3032 3032 3037 3038 3038 3036 3036 3036 3037 3037 3039 3041 3041 3042 3044 3044 3042 3043 3043 3042 3040 3039 3038 3036 3033 3030 3027 3025 3022 3019 3016 3013 3009
3000 3005 3009 3013 3016 3019 3021 3025 3026 3026 3029 3031 3034 3038 3039 3037 3036 3034 3035 3036 3037 3038 3038 3038 3040 3040 3040 3039 3038 3038 3040 3039 3037 3034 3030 3029 3025 3020 3017 3014 3010 3007 3005 3002
2999 3004 3008 3012 3016 3019 3022 3025 3026 3028 3030 3032 3036 3038 3039 3038 3036 3035 3035 3035 3036 3036 3036 3037 3036 3037 3039 3038 3039 3039 3038 3035 3033 3030 3028 3024 3021 3017 3012 3007 3003 3001 2998 2995
2999 3004 3008 3012 3016 3020 3023 3025 3026 3029 3033 3033 3036 3037 3038 3039 3036 3035 3036 3035 3035 3036 3035 3035 3036 3035 3035 3036 3034 3034 3032 3033 3031 3028 3024 3021 3018 3014 3010 3005 3000 2995 2991 2987
2998 3004 3007 3012 3016 3021 3023 3026 3028 3030 3031 3032 3035 3035 3037 3039 3036 3034 3035 3034 3034 3034 3036 3035 3035 3033 3034 3033 3033 3032 3032 3028 3025 3022 3020 3016 3013 3009 3005 3000 2995 2990 2986 2983
2998 3001 3006 3011 3016 3020 3022 3025 3028 3030 3032 3033 3034 3035 3035 3036 3036 3034 3034 3032 3032 3032 3034 3034 3031 3030 3030 3030 3030 3027 3024 3023 3021 3018 3013 3010 3005 3001 2998 2995 2991 2986 2981 2976
2997 3003 3007 3011 3018 3020 3023 3024 3027 3028 3030 3031 3032 3033 3033 3034 3033 3032 3031 3031 3030 3030 3030 3030 3026 3026 3026 3026 3025 3024 3021 3018 3015 3012 3009 3005 3001 2997 2993 2988 2984 2980 2976 2971
2996 3003 3005 3012 3017 3018 3020 3021 3023 3025 3027 3029 3030 3031 3031 3031 3031 3030 3029 3027 3027 3027 3025 3023 3020 3020 3021 3020 3019 3017 3015 3013 3011 3007 3003 2998 2994 2989 2984 2980 2976 2972 2968 2964
2994 2998 3005 3011 3013 3016 3018 3020 3023 3025 3025 3027 3027 3027 3028 3028 3028 3027 3025 3025 3024 3022 3020 3016 3015 3015 3015 3014 3012 3009 3007 3004 3001 2997 2994 2990 2985 2981 2976 2971 2967 2963 2960 2955
2992 2999 3004 3009 3013 3015 3017 3019 3021 3023 3023 3024 3024 3024 3025 3024 3024 3024 3022 3021 3018 3016 3014 3013 3013 3012 3012 3011 3009 3004 2999 2995 2991 2986 2982 2978 2973 2969 2966 2962 2956 2952 2948 2946
2992 2997 3004 3009 3013 3014 3016 3019 3020 3022 3022 3022 3022 3021 3020 3020 3020 3018 3016 3016 3013 3012 3011 3011 3011 3009 3008 3004 3000 2997 2991 2986 2982 2977 2971 2967 2963 2958 2954 2950 2946 2941 2937 2935
2990 2999 3006 3008 3011 3014 3017 3018 3019 3020 3020 3019 3018 3019 3019 3017 3015 3013 3012 3011 3010 3009 3007 3006 3004 3001 2996 2992 2987 2983 2979 2974 2970 2967 2964 2960 2955 2951 2946 2940 2936 2930 2927 2925